| time (UTC) | temp F | wind direction | speed knots | gust knots | rain 1hr in | rain 24hr in | rain mn in | humidity % | barometer mb |
| 20260507010901 | 56 | 71 | 0.0 | 0.9 | 0.00 | 0.05 | 0.05 | 97 | 1008.6 |
| 20260507010357 | 56 | 82 | 0.9 | 0.9 | 0.00 | 0.05 | 0.05 | 97 | 1008.8 |
| 20260507005855 | 56 | 93 | 0.0 | 3.5 | 0.00 | 0.05 | 0.05 | 97 | 1008.7 |
| 20260507005351 | 56 | 126 | 0.0 | 2.6 | 0.00 | 0.05 | 0.05 | 97 | 1008.8 |
| 20260507004848 | 56 | 99 | 0.9 | 1.7 | 0.00 | 0.05 | 0.05 | 97 | 1009.0 |
| 20260507004345 | 56 | 134 | 0.0 | 0.0 | 0.00 | 0.05 | 0.05 | 97 | 1008.9 |
| 20260507003842 | 56 | 172 | 0.9 | 0.9 | 0.00 | 0.05 | 0.05 | 97 | 1008.6 |
| 20260507003338 | 55 | 121 | 1.7 | 1.7 | 0.00 | 0.05 | 0.05 | 97 | 1008.7 |
| 20260507002833 | 55 | 100 | 0.0 | 1.7 | 0.00 | 0.05 | 0.05 | 97 | 1008.6 |
| 20260507002329 | 55 | 110 | 0.0 | 0.9 | 0.00 | 0.05 | 0.05 | 97 | 1008.4 |
| 20260507001827 | 55 | 41 | 0.9 | 1.7 | 0.00 | 0.05 | 0.05 | 97 | 1008.4 |
| 20260507001323 | 55 | 97 | 2.6 | 3.5 | 0.00 | 0.05 | 0.05 | 97 | 1008.5 |
| 20260507000820 | 55 | 63 | 1.7 | 2.6 | 0.00 | 0.05 | 0.05 | 97 | 1008.4 |
| 20260507000315 | 55 | 78 | 0.0 | 2.6 | 0.00 | 0.05 | 0.05 | 97 | 1008.6 |
| 20260506235812 | 56 | 124 | 0.9 | 6.1 | 0.00 | 0.05 | 0.05 | 97 | 1008.7 |
| 20260506235308 | 56 | 98 | 0.0 | 2.6 | 0.00 | 0.05 | 0.05 | 97 | 1008.6 |
| 20260506234805 | 56 | 124 | 1.7 | 3.5 | 0.00 | 0.05 | 0.05 | 97 | 1008.7 |
| 20260506234302 | 56 | 77 | 0.0 | 0.9 | 0.00 | 0.05 | 0.05 | 97 | 1008.6 |
| 20260506233800 | 56 | 94 | 0.0 | 0.9 | 0.00 | 0.05 | 0.05 | 97 | 1008.7 |
| 20260506233250 | 56 | 113 | 1.7 | 3.5 | 0.00 | 0.05 | 0.05 | 97 | 1008.3 |
| 20260506232748 | 56 | 134 | 0.9 | 6.1 | 0.00 | 0.05 | 0.05 | 96 | 1008.3 |
| 20260506232248 | 56 | 85 | 0.0 | 3.5 | 0.00 | 0.05 | 0.05 | 96 | 1008.3 |
| 20260506231745 | 56 | 301 | 0.9 | 5.2 | 0.00 | 0.05 | 0.05 | 96 | 1008.5 |
| 20260506231243 | 56 | 98 | 0.9 | 2.6 | 0.00 | 0.05 | 0.05 | 96 | 1008.4 |
| 20260506230740 | 56 | 64 | 1.7 | 7.0 | 0.00 | 0.05 | 0.05 | 96 | 1008.3 |
| 20260506230237 | 56 | 97 | 0.0 | 2.6 | 0.00 | 0.05 | 0.05 | 96 | 1008.5 |
| 20260506225733 | 56 | 125 | 0.0 | 1.7 | 0.00 | 0.05 | 0.05 | 96 | 1008.5 |
| 20260506225230 | 56 | 98 | 0.0 | 6.1 | 0.00 | 0.05 | 0.05 | 96 | 1008.5 |
| 20260506224727 | 56 | 124 | 0.9 | 2.6 | 0.00 | 0.05 | 0.05 | 95 | 1008.5 |
| 20260506224224 | 56 | 110 | 0.0 | 2.6 | 0.00 | 0.05 | 0.05 | 95 | 1008.4 |
| 20260506223720 | 56 | 62 | 0.9 | 0.9 | 0.00 | 0.05 | 0.05 | 95 | 1008.3 |
| 20260506223216 | 56 | 76 | 0.0 | 0.9 | 0.00 | 0.05 | 0.05 | 95 | 1008.4 |
| 20260506222713 | 56 | 83 | 0.0 | 2.6 | 0.07 | 0.05 | 0.05 | 95 | 1008.2 |
| 20260506222209 | 56 | 100 | 0.9 | 0.9 | 0.07 | 0.05 | 0.05 | 95 | 1008.3 |
| 20260506221707 | 56 | 89 | 0.0 | 0.9 | 0.00 | 0.04 | 0.04 | 95 | 1008.1 |
| 20260506221205 | 57 | 85 | 0.9 | 1.7 | 0.00 | 0.04 | 0.04 | 95 | 1008.4 |
| 20260506220701 | 57 | 62 | 1.7 | 5.2 | 0.00 | 0.04 | 0.04 | 95 | 1008.2 |
| 20260506220156 | 57 | 100 | 0.9 | 1.7 | 0.00 | 0.04 | 0.04 | 95 | 1008.3 |
| 20260506215653 | 57 | 102 | 0.9 | 1.7 | 0.00 | 0.04 | 0.04 | 95 | 1008.5 |
| 20260506215148 | 57 | 98 | 0.0 | 2.6 | 0.00 | 0.04 | 0.04 | 94 | 1008.5 |
| 20260506214646 | 57 | 191 | 3.5 | 6.1 | 0.00 | 0.04 | 0.04 | 94 | 1008.6 |
| 20260506214143 | 57 | 75 | 0.0 | 1.7 | 0.07 | 0.04 | 0.04 | 94 | 1008.7 |
| 20260506213641 | 57 | 97 | 0.0 | 0.0 | 0.07 | 0.04 | 0.04 | 94 | 1008.9 |
| 20260506213138 | 57 | 56 | 0.0 | 5.2 | 0.00 | 0.03 | 0.03 | 94 | 1008.8 |
| 20260506212636 | 57 | 88 | 1.7 | 2.6 | 0.00 | 0.03 | 0.03 | 93 | 1008.9 |
| 20260506212130 | 57 | 86 | 0.0 | 2.6 | 0.00 | 0.03 | 0.03 | 93 | 1008.9 |
| 20260506211626 | 58 | 133 | 1.7 | 2.6 | 0.05 | 0.03 | 0.03 | 93 | 1008.7 |
| 20260506211123 | 58 | 104 | 0.0 | 1.7 | 0.05 | 0.03 | 0.03 | 93 | 1009.0 |
| 20260506210620 | 58 | 90 | 1.7 | 1.7 | 0.00 | 0.02 | 0.02 | 92 | 1009.1 |
| 20260506210116 | 58 | 89 | 1.7 | 2.6 | 0.00 | 0.02 | 0.02 | 92 | 1009.0 |
| 20260506205613 | 58 | 98 | 0.0 | 6.1 | 0.00 | 0.02 | 0.02 | 91 | 1009.0 |
| 20260506205108 | 58 | 165 | 0.0 | 3.5 | 0.00 | 0.02 | 0.02 | 91 | 1009.2 |
| 20260506204606 | 58 | 345 | 1.7 | 3.5 | 0.00 | 0.02 | 0.02 | 91 | 1009.1 |
| 20260506204103 | 58 | 20 | 0.9 | 2.6 | 0.00 | 0.02 | 0.02 | 91 | 1009.2 |
| 20260506203602 | 58 | 113 | 2.6 | 6.1 | 0.00 | 0.02 | 0.02 | 91 | 1009.3 |
| 20260506203058 | 58 | 123 | 1.7 | 1.7 | 0.00 | 0.02 | 0.02 | 91 | 1009.1 |
| 20260506202555 | 58 | 87 | 0.0 | 3.5 | 0.00 | 0.02 | 0.02 | 92 | 1009.3 |
| 20260506202052 | 58 | 104 | 1.7 | 6.1 | 0.00 | 0.02 | 0.02 | 91 | 1009.1 |
| 20260506201549 | 58 | 310 | 1.7 | 2.6 | 0.00 | 0.02 | 0.02 | 91 | 1009.2 |
| 20260506201046 | 58 | 116 | 0.9 | 2.6 | 0.00 | 0.02 | 0.02 | 91 | 1009.3 |
| 20260506200542 | 59 | 96 | 0.9 | 8.7 | 0.07 | 0.02 | 0.02 | 91 | 1009.4 |
| 20260506200039 | 59 | 164 | 1.7 | 3.5 | 0.07 | 0.02 | 0.02 | 90 | 1009.6 |
| 20260506195536 | 59 | 80 | 0.0 | 2.6 | 0.00 | 0.01 | 0.01 | 90 | 1009.5 |
| 20260506195032 | 59 | 293 | 1.7 | 5.2 | 0.00 | 0.01 | 0.01 | 90 | 1009.3 |
| 20260506194530 | 59 | 113 | 3.5 | 7.0 | 0.00 | 0.01 | 0.01 | 90 | 1009.6 |
| 20260506194026 | 59 | 136 | 1.7 | 2.6 | 0.00 | 0.01 | 0.01 | 91 | 1009.6 |
| 20260506193523 | 59 | 92 | 0.0 | 2.6 | 0.00 | 0.01 | 0.01 | 91 | 1009.6 |
| 20260506193020 | 59 | 113 | 2.6 | 5.2 | 0.00 | 0.01 | 0.01 | 91 | 1009.7 |
| 20260506192517 | 59 | 121 | 0.0 | 0.9 | 0.05 | 0.01 | 0.01 | 90 | 1009.8 |
| 20260506192013 | 59 | 95 | 0.9 | 6.1 | 0.05 | 0.01 | 0.01 | 89 | 1009.9 |
| 20260506191510 | 59 | 81 | 0.0 | 5.2 | 0.00 | 0.00 | 0.00 | 88 | 1010.0 |
| 20260506191006 | 59 | 124 | 0.9 | 2.6 | 0.00 | 0.00 | 0.00 | 86 | 1009.7 |
| 20260506190503 | 60 | 84 | 0.0 | 6.1 | 0.00 | 0.00 | 0.00 | 85 | 1010.0 |
| 20260506190000 | 60 | 123 | 0.0 | 5.2 | 0.00 | 0.00 | 0.00 | 84 | 1009.8 |
| 20260506185457 | 61 | 136 | 1.7 | 2.6 | 0.00 | 0.00 | 0.00 | 83 | 1009.9 |
| 20260506184954 | 62 | 67 | 0.9 | 9.6 | 0.00 | 0.00 | 0.00 | 80 | 1010.0 |
| 20260506184451 | 62 | 91 | 0.0 | 0.9 | 0.00 | 0.00 | 0.00 | 79 | 1010.1 |
| 20260506183948 | 62 | 125 | 0.0 | 3.5 | 0.00 | 0.00 | 0.00 | 78 | 1010.2 |
| 20260506183444 | 62 | 44 | 1.7 | 3.5 | 0.00 | 0.00 | 0.00 | 76 | 1010.0 |
| 20260506182941 | 62 | 106 | 1.7 | 2.6 | 0.00 | 0.00 | 0.00 | 76 | 1010.3 |
| 20260506182438 | 62 | 75 | 0.9 | 7.0 | 0.00 | 0.00 | 0.00 | 76 | 1010.5 |
| 20260506181935 | 62 | 174 | 1.7 | 5.2 | 0.00 | 0.00 | 0.00 | 75 | 1010.1 |
| 20260506181433 | 63 | 132 | 3.5 | 6.1 | 0.00 | 0.00 | 0.00 | 75 | 1010.3 |
| 20260506180930 | 63 | 332 | 0.9 | 9.6 | 0.00 | 0.00 | 0.00 | 74 | 1010.7 |
| 20260506180426 | 63 | 72 | 0.9 | 6.1 | 0.00 | 0.00 | 0.00 | 74 | 1010.5 |
| 20260506175923 | 63 | 85 | 0.9 | 5.2 | 0.00 | 0.00 | 0.00 | 75 | 1010.5 |
| 20260506175420 | 64 | 20 | 4.3 | 7.0 | 0.00 | 0.00 | 0.00 | 73 | 1010.4 |
| 20260506174917 | 64 | 0 | 0.9 | 5.2 | 0.00 | 0.00 | 0.00 | 73 | 1010.6 |
| 20260506174414 | 64 | 61 | 0.9 | 5.2 | 0.00 | 0.00 | 0.00 | 73 | 1010.7 |
| 20260506173911 | 64 | 146 | 1.7 | 1.7 | 0.00 | 0.00 | 0.00 | 73 | 1010.8 |
| 20260506173408 | 65 | 31 | 0.9 | 6.1 | 0.00 | 0.00 | 0.00 | 71 | 1010.8 |
| 20260506172905 | 65 | 35 | 0.9 | 1.7 | 0.00 | 0.00 | 0.00 | 71 | 1010.9 |
| 20260506172402 | 65 | 89 | 2.6 | 6.1 | 0.00 | 0.00 | 0.00 | 70 | 1011.1 |
| 20260506171859 | 66 | 151 | 5.2 | 9.6 | 0.00 | 0.00 | 0.00 | 70 | 1011.1 |
| 20260506171356 | 66 | 290 | 2.6 | 3.5 | 0.00 | 0.00 | 0.00 | 69 | 1011.4 |
| 20260506170854 | 66 | 4 | 0.9 | 7.0 | 0.00 | 0.00 | 0.00 | 69 | 1011.3 |
| 20260506170350 | 67 | 163 | 2.6 | 6.1 | 0.00 | 0.00 | 0.00 | 69 | 1011.2 |
| 20260506165849 | 67 | 96 | 1.7 | 2.6 | 0.00 | 0.00 | 0.00 | 67 | 1011.0 |
| 20260506165347 | 67 | 308 | 1.7 | 6.1 | 0.00 | 0.00 | 0.00 | 68 | 1010.8 |
| 20260506164843 | 68 | 66 | 5.2 | 8.7 | 0.00 | 0.00 | 0.00 | 66 | 1011.0 |
| 20260506164339 | 69 | 264 | 0.9 | 5.2 | 0.00 | 0.00 | 0.00 | 65 | 1010.9 |
| 20260506163837 | 68 | 45 | 0.9 | 3.5 | 0.00 | 0.00 | 0.00 | 66 | 1011.2 |
| 20260506163332 | 67 | 52 | 3.5 | 7.0 | 0.00 | 0.00 | 0.00 | 67 | 1011.2 |
| 20260506162827 | 67 | 139 | 2.6 | 5.2 | 0.00 | 0.00 | 0.00 | 67 | 1011.4 |
| 20260506162326 | 66 | 182 | 1.7 | 3.5 | 0.00 | 0.00 | 0.00 | 68 | 1011.6 |
| 20260506161823 | 66 | 101 | 1.7 | 3.5 | 0.00 | 0.00 | 0.00 | 69 | 1011.6 |
| 20260506161320 | 66 | 72 | 0.9 | 9.6 | 0.00 | 0.00 | 0.00 | 68 | 1011.8 |
| 20260506160818 | 66 | 32 | 3.5 | 7.8 | 0.00 | 0.00 | 0.00 | 69 | 1011.5 |
| 20260506160314 | 67 | 61 | 1.7 | 3.5 | 0.00 | 0.00 | 0.00 | 67 | 1011.7 |
| 20260506155813 | 67 | 88 | 0.0 | 2.6 | 0.00 | 0.00 | 0.00 | 67 | 1011.9 |
| 20260506155309 | 67 | 79 | 1.7 | 3.5 | 0.00 | 0.00 | 0.00 | 67 | 1011.9 |
| 20260506153421 | 69 | 50 | 0.9 | 6.1 | 0.00 | 0.00 | 0.00 | 64 | 1011.8 |
| 20260506152919 | 69 | 153 | 4.3 | 7.8 | 0.00 | 0.00 | 0.00 | 64 | 1011.8 |
| 20260506152415 | 69 | 125 | 1.7 | 2.6 | 0.00 | 0.00 | 0.00 | 65 | 1011.9 |
| 20260506151914 | 69 | 155 | 0.9 | 5.2 | 0.00 | 0.00 | 0.00 | 65 | 1012.0 |
| 20260506151411 | 67 | 282 | 0.9 | 3.5 | 0.00 | 0.00 | 0.00 | 67 | 1011.8 |
| 20260506150908 | 67 | 115 | 1.7 | 7.0 | 0.00 | 0.00 | 0.00 | 67 | 1012.1 |
| 20260506150404 | 67 | 146 | 0.0 | 1.7 | 0.00 | 0.00 | 0.00 | 69 | 1012.1 |
| 20260506145901 | 68 | 105 | 5.2 | 7.0 | 0.00 | 0.00 | 0.00 | 66 | 1011.8 |
| 20260506145357 | 68 | 116 | 1.7 | 2.6 | 0.00 | 0.00 | 0.00 | 67 | 1012.1 |
| 20260506144855 | 67 | 254 | 0.9 | 5.2 | 0.00 | 0.00 | 0.00 | 67 | 1012.1 |
| 20260506144351 | 67 | 71 | 1.7 | 7.8 | 0.00 | 0.00 | 0.00 | 68 | 1012.1 |
| 20260506143850 | 66 | 72 | 0.9 | 6.1 | 0.00 | 0.00 | 0.00 | 69 | 1012.0 |
| 20260506143347 | 67 | 125 | 1.7 | 3.5 | 0.00 | 0.00 | 0.00 | 68 | 1012.1 |
| 20260506142845 | 67 | 168 | 2.6 | 7.8 | 0.00 | 0.00 | 0.00 | 67 | 1012.1 |
| 20260506142342 | 67 | 66 | 2.6 | 6.1 | 0.00 | 0.00 | 0.00 | 67 | 1012.2 |
| 20260506141841 | 66 | 84 | 0.0 | 2.6 | 0.00 | 0.00 | 0.00 | 71 | 1012.3 |
| 20260506141338 | 65 | 344 | 0.9 | 3.5 | 0.00 | 0.00 | 0.00 | 70 | 1012.3 |
| 20260506140836 | 66 | 113 | 2.6 | 3.5 | 0.00 | 0.00 | 0.00 | 70 | 1012.2 |
| 20260506140333 | 66 | 90 | 0.0 | 2.6 | 0.00 | 0.00 | 0.00 | 70 | 1012.1 |
| 20260506135830 | 65 | 136 | 2.6 | 7.0 | 0.00 | 0.00 | 0.00 | 71 | 1011.9 |
| 20260506135326 | 64 | 129 | 0.9 | 5.2 | 0.00 | 0.00 | 0.00 | 72 | 1012.1 |
| 20260506134823 | 64 | 91 | 2.6 | 7.0 | 0.00 | 0.00 | 0.00 | 72 | 1011.9 |
| 20260506134319 | 64 | 147 | 2.6 | 6.1 | 0.00 | 0.00 | 0.00 | 72 | 1012.0 |
| 20260506133817 | 65 | 77 | 0.9 | 2.6 | 0.00 | 0.00 | 0.00 | 72 | 1012.2 |
| 20260506133313 | 65 | 93 | 1.7 | 5.2 | 0.00 | 0.00 | 0.00 | 72 | 1012.2 |
| 20260506132810 | 65 | 114 | 0.9 | 5.2 | 0.00 | 0.00 | 0.00 | 72 | 1012.1 |
| 20260506132307 | 64 | 109 | 0.9 | 1.7 | 0.00 | 0.00 | 0.00 | 74 | 1012.4 |
| 20260506131805 | 64 | 67 | 0.9 | 7.0 | 0.00 | 0.00 | 0.00 | 73 | 1012.6 |
| 20260506131301 | 64 | 77 | 0.9 | 6.1 | 0.00 | 0.00 | 0.00 | 73 | 1012.6 |
| 20260506130758 | 63 | 62 | 3.5 | 7.8 | 0.00 | 0.00 | 0.00 | 74 | 1012.3 |
| 20260506130254 | 63 | 107 | 0.9 | 1.7 | 0.00 | 0.00 | 0.00 | 75 | 1012.6 |
| 20260506125753 | 63 | 120 | 0.9 | 2.6 | 0.00 | 0.00 | 0.00 | 76 | 1012.5 |
| 20260506125250 | 62 | 124 | 0.0 | 6.1 | 0.00 | 0.00 | 0.00 | 76 | 1012.4 |
| 20260506124749 | 62 | 102 | 0.0 | 1.7 | 0.00 | 0.00 | 0.00 | 77 | 1012.5 |
| 20260506124246 | 62 | 175 | 0.9 | 5.2 | 0.00 | 0.00 | 0.00 | 76 | 1012.5 |
| 20260506123743 | 62 | 101 | 0.0 | 1.7 | 0.00 | 0.00 | 0.00 | 77 | 1012.5 |
| 20260506123242 | 62 | 93 | 0.0 | 6.1 | 0.00 | 0.00 | 0.00 | 77 | 1012.4 |
| 20260506122738 | 61 | 46 | 0.9 | 1.7 | 0.00 | 0.00 | 0.00 | 79 | 1012.3 |
| 20260506122235 | 61 | 123 | 1.7 | 5.2 | 0.00 | 0.00 | 0.00 | 79 | 1012.4 |
| 20260506121733 | 61 | 93 | 1.7 | 6.1 | 0.00 | 0.00 | 0.00 | 80 | 1012.4 |
| 20260506121230 | 60 | 112 | 0.0 | 3.5 | 0.00 | 0.00 | 0.00 | 81 | 1012.7 |
| 20260506120727 | 60 | 75 | 4.3 | 7.0 | 0.00 | 0.00 | 0.00 | 81 | 1012.5 |
| 20260506120225 | 60 | 121 | 0.9 | 2.6 | 0.00 | 0.00 | 0.00 | 82 | 1012.6 |
| 20260506115723 | 59 | 110 | 1.7 | 3.5 | 0.00 | 0.00 | 0.00 | 83 | 1012.6 |
| 20260506115221 | 59 | 88 | 0.0 | 2.6 | 0.00 | 0.00 | 0.00 | 84 | 1012.6 |
| 20260506114718 | 59 | 143 | 0.9 | 3.5 | 0.00 | 0.00 | 0.00 | 85 | 1012.7 |
| 20260506114216 | 58 | 60 | 0.0 | 1.7 | 0.00 | 0.00 | 0.00 | 85 | 1012.9 |
| 20260506113714 | 58 | 98 | 0.0 | 0.9 | 0.00 | 0.00 | 0.00 | 86 | 1012.9 |
| 20260506113211 | 58 | 70 | 0.0 | 3.5 | 0.00 | 0.00 | 0.00 | 86 | 1012.8 |
| 20260506112707 | 58 | 181 | 2.6 | 5.2 | 0.00 | 0.00 | 0.00 | 86 | 1013.0 |
| 20260506112205 | 58 | 86 | 0.0 | 5.2 | 0.00 | 0.00 | 0.00 | 86 | 1012.8 |
| 20260506111702 | 58 | 145 | 1.7 | 2.6 | 0.00 | 0.00 | 0.00 | 86 | 1012.7 |
| 20260506111200 | 58 | 107 | 0.9 | 9.6 | 0.00 | 0.00 | 0.00 | 87 | 1012.9 |
| 20260506110657 | 57 | 151 | 0.0 | 5.2 | 0.00 | 0.00 | 0.00 | 88 | 1013.0 |
| 20260506110155 | 57 | 92 | 0.0 | 1.7 | 0.00 | 0.00 | 0.00 | 89 | 1012.9 |
| 20260506105651 | 57 | 259 | 1.7 | 2.6 | 0.00 | 0.00 | 0.00 | 89 | 1012.9 |
| 20260506105148 | 57 | 123 | 1.7 | 2.6 | 0.00 | 0.00 | 0.00 | 89 | 1012.9 |
| 20260506104646 | 57 | 87 | 0.0 | 5.2 | 0.00 | 0.00 | 0.00 | 89 | 1012.8 |
| 20260506104143 | 57 | 117 | 0.0 | 1.7 | 0.00 | 0.00 | 0.00 | 89 | 1012.7 |
| 20260506103640 | 57 | 99 | 0.0 | 0.9 | 0.00 | 0.00 | 0.00 | 89 | 1012.7 |
| 20260506103137 | 57 | 99 | 0.0 | 0.9 | 0.00 | 0.00 | 0.00 | 89 | 1012.6 |
| 20260506102635 | 57 | 93 | 0.0 | 0.9 | 0.00 | 0.00 | 0.00 | 89 | 1012.7 |
| 20260506102132 | 57 | 75 | 0.9 | 0.9 | 0.00 | 0.00 | 0.00 | 90 | 1012.6 |
| 20260506101629 | 57 | 98 | 0.0 | 2.6 | 0.00 | 0.00 | 0.00 | 90 | 1012.7 |
| 20260506101126 | 56 | 94 | 0.0 | 3.5 | 0.00 | 0.00 | 0.00 | 90 | 1012.6 |
| 20260506100625 | 56 | 116 | 0.0 | 2.6 | 0.00 | 0.00 | 0.00 | 90 | 1012.8 |
| 20260506100122 | 56 | 79 | 0.0 | 2.6 | 0.00 | 0.00 | 0.00 | 90 | 1012.5 |
| 20260506095621 | 56 | 100 | 0.0 | 1.7 | 0.00 | 0.00 | 0.00 | 90 | 1012.5 |
| 20260506095117 | 56 | 111 | 1.7 | 6.1 | 0.00 | 0.00 | 0.00 | 90 | 1012.5 |
| 20260506094614 | 57 | 93 | 0.0 | 1.7 | 0.00 | 0.00 | 0.00 | 89 | 1012.3 |
| 20260506094112 | 57 | 83 | 0.0 | 1.7 | 0.00 | 0.00 | 0.00 | 89 | 1012.6 |
| 20260506093610 | 57 | 88 | 0.0 | 5.2 | 0.00 | 0.00 | 0.00 | 89 | 1012.4 |
| 20260506093107 | 57 | 136 | 1.7 | 5.2 | 0.00 | 0.00 | 0.00 | 89 | 1012.5 |
| 20260506092605 | 57 | 100 | 2.6 | 3.5 | 0.00 | 0.00 | 0.00 | 89 | 1012.6 |
| 20260506092102 | 57 | 105 | 0.0 | 0.9 | 0.00 | 0.00 | 0.00 | 89 | 1012.6 |
| 20260506091600 | 57 | 53 | 0.0 | 2.6 | 0.00 | 0.00 | 0.00 | 88 | 1012.6 |
| 20260506091057 | 57 | 225 | 0.9 | 6.1 | 0.00 | 0.00 | 0.00 | 88 | 1012.8 |
| 20260506090555 | 57 | 100 | 0.9 | 7.0 | 0.00 | 0.00 | 0.00 | 88 | 1012.7 |
| 20260506090051 | 57 | 70 | 0.9 | 2.6 | 0.00 | 0.00 | 0.00 | 88 | 1012.5 |
| 20260506085548 | 57 | 104 | 0.0 | 1.7 | 0.00 | 0.00 | 0.00 | 87 | 1012.6 |
| 20260506085044 | 57 | 137 | 1.7 | 3.5 | 0.00 | 0.00 | 0.00 | 87 | 1012.8 |
| 20260506084541 | 57 | 81 | 0.0 | 2.6 | 0.00 | 0.00 | 0.00 | 87 | 1012.8 |
| 20260506084037 | 57 | 31 | 0.0 | 5.2 | 0.00 | 0.00 | 0.00 | 86 | 1012.8 |
| 20260506083535 | 57 | 8 | 0.0 | 2.6 | 0.00 | 0.00 | 0.00 | 86 | 1012.9 |
| 20260506083032 | 57 | 105 | 0.0 | 5.2 | 0.00 | 0.00 | 0.00 | 86 | 1013.1 |
| 20260506082529 | 58 | 289 | 0.9 | 6.1 | 0.00 | 0.00 | 0.00 | 86 | 1012.9 |
| 20260506082024 | 58 | 102 | 0.9 | 8.7 | 0.00 | 0.00 | 0.00 | 86 | 1012.8 |
| 20260506081523 | 58 | 136 | 0.9 | 2.6 | 0.00 | 0.00 | 0.00 | 86 | 1012.9 |
| 20260506081020 | 58 | 84 | 0.9 | 1.7 | 0.00 | 0.00 | 0.00 | 85 | 1013.0 |
| 20260506080517 | 58 | 157 | 0.9 | 2.6 | 0.00 | 0.00 | 0.00 | 85 | 1012.9 |
| 20260506073501 | 58 | 106 | 1.7 | 6.1 | 0.00 | 0.00 | 0.00 | 85 | 1013.0 |
| 20260506072958 | 58 | 83 | 0.0 | 0.0 | 0.00 | 0.00 | 0.00 | 84 | 1012.9 |
| 20260506072455 | 58 | 78 | 0.0 | 1.7 | 0.00 | 0.00 | 0.00 | 84 | 1012.9 |
| 20260506071953 | 59 | 77 | 1.7 | 5.2 | 0.00 | 0.00 | 0.00 | 84 | 1012.9 |
| 20260506071451 | 59 | 117 | 1.7 | 3.5 | 0.00 | 0.00 | 0.00 | 84 | 1012.9 |
| 20260506070947 | 59 | 121 | 0.0 | 1.7 | 0.00 | 0.00 | 0.00 | 83 | 1012.7 |
| 20260506070444 | 59 | 338 | 0.0 | 5.2 | 0.00 | 0.00 | 0.00 | 84 | 1012.6 |
| 20260506062422 | 58 | 83 | 0.9 | 2.6 | 0.00 | 0.00 | 0.00 | 83 | 1012.7 |
| 20260506061918 | 58 | 56 | 0.0 | 7.0 | 0.00 | 0.00 | 0.00 | 83 | 1012.6 |
| 20260506061414 | 58 | 58 | 0.0 | 1.7 | 0.00 | 0.00 | 0.00 | 83 | 1012.7 |
| 20260506060912 | 58 | 225 | 0.9 | 5.2 | 0.00 | 0.00 | 0.00 | 83 | 1012.6 |
| 20260506060410 | 58 | 129 | 0.9 | 2.6 | 0.00 | 0.00 | 0.00 | 83 | 1012.6 |
| 20260506051342 | 57 | 31 | 0.9 | 1.7 | 0.00 | 0.00 | 0.00 | 81 | 1013.2 |
| 20260506050839 | 58 | 98 | 0.0 | 2.6 | 0.00 | 0.00 | 0.00 | 81 | 1013.2 |
| 20260506050337 | 58 | 113 | 0.9 | 2.6 | 0.00 | 0.00 | 0.00 | 80 | 1013.1 |
| 20260506044827 | 58 | 159 | 0.9 | 7.0 | 0.00 | 0.00 | 0.00 | 78 | 1013.4 |
| 20260506044325 | 59 | 85 | 0.0 | 1.7 | 0.00 | 0.00 | 0.00 | 77 | 1013.3 |
| 20260506043822 | 59 | 97 | 0.9 | 1.7 | 0.00 | 0.00 | 0.00 | 76 | 1013.3 |
| 20260506043319 | 59 | 163 | 3.5 | 6.1 | 0.00 | 0.00 | 0.00 | 76 | 1013.3 |
| 20260506042818 | 59 | 147 | 0.9 | 1.7 | 0.00 | 0.00 | 0.00 | 75 | 1013.3 |
| 20260506042316 | 60 | 75 | 0.0 | 3.5 | 0.00 | 0.00 | 0.00 | 75 | 1013.4 |
| 20260506041815 | 60 | 53 | 0.0 | 3.5 | 0.00 | 0.00 | 0.00 | 74 | 1013.2 |
| 20260506041311 | 60 | 102 | 0.0 | 2.6 | 0.00 | 0.00 | 0.00 | 74 | 1013.1 |
| 20260506040809 | 60 | 102 | 0.9 | 1.7 | 0.00 | 0.00 | 0.00 | 74 | 1013.3 |
| 20260506040306 | 60 | 104 | 0.9 | 7.8 | 0.00 | 0.00 | 0.00 | 74 | 1013.1 |
| 20260506035802 | 60 | 50 | 0.9 | 5.2 | 0.00 | 0.00 | 0.00 | 74 | 1013.1 |
| 20260506035259 | 60 | 72 | 1.7 | 3.5 | 0.00 | 0.00 | 0.00 | 74 | 1013.2 |
| 20260506034756 | 60 | 289 | 0.9 | 2.6 | 0.00 | 0.00 | 0.00 | 74 | 1013.1 |
| 20260506034254 | 60 | 149 | 0.9 | 2.6 | 0.00 | 0.00 | 0.00 | 74 | 1013.1 |
| 20260506033750 | 60 | 1 | 0.9 | 3.5 | 0.00 | 0.00 | 0.00 | 74 | 1013.2 |
| 20260506033247 | 60 | 98 | 0.0 | 2.6 | 0.00 | 0.00 | 0.00 | 74 | 1013.3 |
| 20260506032744 | 60 | 86 | 0.9 | 5.2 | 0.00 | 0.00 | 0.00 | 73 | 1013.1 |
| 20260506032241 | 60 | 77 | 0.0 | 2.6 | 0.00 | 0.00 | 0.00 | 73 | 1013.1 |
| 20260506031738 | 60 | 94 | 1.7 | 1.7 | 0.00 | 0.00 | 0.00 | 72 | 1012.9 |
| 20260506031235 | 60 | 172 | 3.5 | 7.0 | 0.00 | 0.00 | 0.00 | 72 | 1013.1 |
| 20260506030733 | 60 | 296 | 1.7 | 7.0 | 0.00 | 0.00 | 0.00 | 71 | 1013.0 |
| 20260506030231 | 60 | 263 | 4.3 | 7.8 | 0.00 | 0.00 | 0.00 | 71 | 1013.0 |
| 20260506025727 | 60 | 100 | 0.9 | 6.1 | 0.00 | 0.00 | 0.00 | 71 | 1013.0 |
| 20260506025224 | 60 | 279 | 2.6 | 2.6 | 0.00 | 0.00 | 0.00 | 71 | 1013.0 |
| 20260506024721 | 60 | 274 | 0.9 | 6.1 | 0.00 | 0.00 | 0.00 | 71 | 1012.8 |
| 20260506024217 | 60 | 98 | 0.9 | 3.5 | 0.00 | 0.00 | 0.00 | 71 | 1012.8 |
| 20260506023714 | 60 | 26 | 0.9 | 2.6 | 0.00 | 0.00 | 0.00 | 71 | 1012.8 |
| 20260506023211 | 60 | 85 | 1.7 | 2.6 | 0.00 | 0.00 | 0.00 | 71 | 1012.8 |
| 20260506022708 | 60 | 69 | 0.9 | 2.6 | 0.00 | 0.00 | 0.00 | 71 | 1012.9 |
| 20260506022205 | 60 | 26 | 0.9 | 3.5 | 0.00 | 0.00 | 0.00 | 71 | 1012.8 |
| 20260506021703 | 60 | 101 | 0.9 | 2.6 | 0.00 | 0.00 | 0.00 | 70 | 1013.0 |
| 20260506021200 | 60 | 107 | 0.0 | 5.2 | 0.00 | 0.00 | 0.00 | 70 | 1012.9 |
| 20260506020657 | 60 | 103 | 0.9 | 7.8 | 0.00 | 0.00 | 0.00 | 69 | 1012.9 |
| 20260506020155 | 60 | 102 | 0.0 | 1.7 | 0.00 | 0.00 | 0.00 | 70 | 1013.0 |
| 20260506015652 | 60 | 103 | 0.0 | 1.7 | 0.00 | 0.00 | 0.00 | 70 | 1012.7 |
| 20260506015149 | 60 | 94 | 1.7 | 2.6 | 0.00 | 0.00 | 0.00 | 70 | 1013.0 |
| 20260506014647 | 60 | 99 | 0.0 | 1.7 | 0.00 | 0.00 | 0.00 | 70 | 1012.9 |
| 20260506014142 | 60 | 162 | 0.0 | 5.2 | 0.00 | 0.00 | 0.00 | 69 | 1013.1 |
| 20260506013640 | 60 | 95 | 0.0 | 2.6 | 0.00 | 0.00 | 0.00 | 69 | 1012.9 |
| 20260506013137 | 60 | 112 | 0.9 | 5.2 | 0.00 | 0.00 | 0.00 | 69 | 1012.8 |
| 20260506012633 | 60 | 50 | 0.9 | 2.6 | 0.00 | 0.00 | 0.00 | 69 | 1012.9 |
| 20260506012130 | 60 | 129 | 0.9 | 1.7 | 0.00 | 0.00 | 0.00 | 70 | 1012.7 |
| 20260506011628 | 59 | 89 | 0.0 | 2.6 | 0.00 | 0.00 | 0.00 | 71 | 1012.5 |